Regional Weather Roundup
Issued by NWS

Home | Current Version | Previous Version | Graphics & Text | Print | Product List | Glossary On
Versions: 1 2 3 4 5 6 7 8 9 10 11 12 13 14 15 16 17 18 19 20 21 22 23 24 25 26 27 28 29 30 31 32 33 34 35 36 37 38 39 40 41 42 43 44 45 46 47 48 49 50
000
ASUS43 KMKX 260728
RWRWI

WISCONSIN REGIONAL WEATHER ROUNDUP
NATIONAL WEATHER SERVICE MILWAUKEE/SULLIVAN WI
200 AM CDT TUE MAY 26 2015

NOTE: "FAIR" INDICATES FEW OR NO CLOUDS BELOW 12,000 FEET WITH NO
SIGNIFICANT WEATHER AND/OR OBSTRUCTIONS TO VISIBILITY.

WIZ001-002-006>008-014>016-023>028-260800-
NORTHWEST WISCONSIN

CITY           SKY/WX    TMP DP  RH WIND       PRES   REMARKS
SUPERIOR ARPT  DRZL/FOG  47  47 100 CALM      29.80F VSB 3/4
ASHLAND        CLOUDY    50  50 100 CALM      29.80S
HAYWARD        MOCLDY    54  52  93 CALM      29.79R
SIREN          PTCLDY    54  53  97 CALM      29.79R
CUMBERLAND     FOG       55  54  94 CALM      29.81R VSB<1/4
RICE LAKE      FOG       58  56  94 CALM      29.81S VSB 1/2
CHETEK         MOCLDY    59  59 100 CALM      29.80R FOG
LADYSMITH      CLEAR     60  59  96 S3        29.83R FOG
EAU CLAIRE     FOG       58  57  97 CALM      29.80R VSB 1
MENOMONIE      PTCLDY    59  59  99 CALM      29.81R
NEW RICHMOND   FOG       59  59 100 W5        29.80S VSB 3/4
OSCEOLA        PTCLDY    55  55 100 SE3       29.82R
$$

WIZ003>005-009-010-017-018-260800-
NORTH CENTRAL WISCONSIN

CITY           SKY/WX    TMP DP  RH WIND       PRES   REMARKS
MANITOWISH WTR CLOUDY    59  59 100 S5        29.80R
ARBOR VITAE    MOCLDY    62  60  94 SW3       29.81R
WOODRUFF       MOCLDY    62  60  94 SW3       29.81R
RHINELANDER    MOCLDY    60  58  92 SW7       29.83S
EAGLE RIVER    MOCLDY    60  60  99 CALM      29.82R
LAND O LAKES   MOCLDY    60  59  97 CALM      29.82S
PHILLIPS       PTCLDY    60  60  99 S5        29.80S
TOMAHAWK       PTCLDY    57  56  97 CALM      29.83R FOG
MEDFORD        CLEAR     60  59  97 S6        29.83S
MERRILL        FOG       53  53 100 CALM      29.83S VSB 1/2
$$

WIZ029-030-035-036-043>047-260800-
CENTRAL WISCONSIN

CITY           SKY/WX    TMP DP  RH WIND       PRES   REMARKS
WAUSAU         CLEAR     61  60  97 SW6       29.82S
MOSINEE        PTCLDY    61  61 100 S8        29.85R
MARSHFIELD     PTCLDY    64  60  87 S9        29.83R
STEVENS POINT  CLEAR     61  59  96 S6        29.85R
WAUPACA        CLEAR     64  63  96 CALM      29.85S
WAUTOMA        CLEAR     66  63  90 S5        29.86R
WISC RAPIDS    PTCLDY    64  60  87 SW5       29.85R
CAMP DOUGLAS   MOCLDY    67  67 100 SW1       29.83S
$$

WIZ011>013-019>022-031-037>040-048>050-260800-
NORTHEAST WISCONSIN

CITY           SKY/WX    TMP DP  RH WIND       PRES   REMARKS
ANTIGO         PTCLDY    61  59  95 SW13      29.84S
SHAWANO        PTCLDY    63  60  93 CALM      29.84S
OCONTO         PTCLDY    61  61 100 CALM      29.83S
STURGEON BAY   MOCLDY    64  59  82 S10       29.86S
GREEN BAY      PTCLDY    67  61  81 SW8       29.86R
MANITOWOC      PTCLDY    69  61  75 SW9       29.87S
APPLETON       PTCLDY    64  59  82 SW12      29.87R
CLINTONVILLE   CLEAR     63  61  94 SW6       29.84S
OSHKOSH        CLEAR     66  59  78 S10       29.86S
$$

WIZ032>034-041-042-053>061-260800-
SOUTHWEST WISCONSIN

CITY           SKY/WX    TMP DP  RH WIND       PRES   REMARKS
LA CROSSE      RAIN      68  61  78 SW22G30   29.82F
SPARTA         CLOUDY    63  61  93 CALM      29.84F
VIROQUA        CLOUDY    67  64  91 SW17G26   29.88R
BOSCOBEL       PTCLDY    69  62  78 SW10G17   29.86S
PRAIRIE DU CHI MOCLDY    64  57  79 W5G12     29.86F
PLATTEVILLE    PTCLDY    65  62  89 SE9       29.87F
$$

WIZ056-057-062-063-064-067-068-260800-
SOUTH CENTRAL WISCONSIN

CITY           SKY/WX    TMP DP  RH WIND       PRES   REMARKS
REEDSBURG      CLEAR     67  62  85 SW7       29.84F
BARABOO/DELLS  CLEAR     66  59  80 S6        29.85F
LONE ROCK      MOCLDY    65  61  87 CALM      29.85F
MINERAL POINT  CLEAR     64  61  88 CALM      29.88F
MADISON        CLEAR     67  60  78 S6        29.87S
MIDDLETON      CLEAR     67  59  76 CALM      29.88F
WATERTOWN      CLEAR     64  64  97 S3        29.89S
MONROE         CLEAR     64  61  88 S12       29.89F
JANESVILLE     CLEAR     68  61  77 S8        29.89F
$$

WIZ051-052-058>065-066-070>072-260800-
SOUTHEAST WISCONSIN

CITY           SKY/WX    TMP DP  RH WIND       PRES   REMARKS
MILWAUKEE      PTCLDY    68  59  73 SW10      29.91R
WAUKESHA       CLEAR     63  59  88 S5        29.92S
MILWAUKEE/TIMM CLEAR     66  57  72 S8        29.91S
RACINE         PTCLDY    68  59  73 SW7       29.93R
BURLINGTON     CLEAR     63  59  87 S7        29.92S
KENOSHA        CLEAR     68  60  75 SW7       29.92S
FOND DU LAC    CLEAR     68  60  75 SW7       29.87S
SHEBOYGAN      PTCLDY    61  58  90 S6        29.88S
WEST BEND      CLEAR     64  59  82 S5        29.89S
JUNEAU         CLEAR     65  60  83 S5        29.90S
$$

LSZ147-162-260800-
LAKE SUPERIOR

STATION/POSITION TIME  TEMP    WIND        PRES    WAVE
                       AIR SEA DIR/SP/G            HT/PER
                 (UTC) (F)     (DEG/KT/KT) (MB)    (FT/S)
W MID LAKE BUOY  0650   40 36  300/  6/  6   N/A     1/ 5
DEVILS ISLAND    0700   46     290/  4/  5   N/A
PORT WING        0600   45     300/  2/  3   N/A
SAXON HARBOR     0600   48        CALM       N/A
$$

LMZ867-665-643>646-260800-
LAKE MICHIGAN

STATION/POSITION TIME  TEMP    WIND        PRES    WAVE
                       AIR SEA DIR/SP/G            HT/PER
                 (UTC) (F)     (DEG/KT/KT) (MB)    (FT/S)
CHAMBERS ISLAND  0600   62     180/  4/ 11   N/A
N MID LAKE BUOY  0650   42 37  190/ 12/ 16   N/A     2/ 5
NORTHPORT PIER   0600   59     160/  3/  5   N/A
SISTER BAY       0517   68     230/ 11/ 14   N/A
KEWAUNEE LAKESHO 0700   53     180/  3/  5   N/A
SHEBOYGAN LAKESH 0700   60     220/  7/  8   N/A
PORT WASHINGTON  0530          200/  5/ 19   N/A
ATWATER BUOY     0700   53 46  150/ 12/ 14   N/A
MILWAUKEE LAKESH 0700   69     210/ 11/ 14   N/A
S MID LAKE BUOY  0650   46 38  190/ 12/ 12   N/A     1
KENOSHA   LAKESH 0700   65     190/  7/  9   N/A
$$

TC  - TEMPERATURE IN CELSIUS
VSB - VISIBILITY IN STATUTE MILES
WCI - WIND CHILL INDEX
HX  - HEAT INDEX




USA.gov is the U.S. government's official web portal to all federal, state and local government web resources and services.